OBJECT AV (43801 NORAD) Tracking and Keplerian Element Data

This shows tracking and keplerian element data for the satellite.

Feedback or suggestion? Click here.




ElementValue
Catalog43801
NameOBJECT AV
Epoch Orbit672
Epoch Day17.79210401
Epoch Year2019
RAAN91.4808
Inclination97.7589
Eccentricity0.0015693
Argument of Perigee107.3448
Mean Anonmoly252.949
Mean Motion14.95144195
Decay Rate2.1E-07
L11 43801U 18099AV 19017.79210401 .00000021 00000-0 72287-5 0 9999
L22 43801 97.7589 91.4808 0015693 107.3448 252.9490 14.95144195 6723

Live tracking and technical data element details for OBJECT AV (NORAD 43801). OBJECT AV can be tracked NOW for your location showing map with azimuth and elevation plus other details from your city location.

Track the satellite on the map from your city or location and see movement details for azimuth, elevation, latitude, longitude, range, height, and movement on the map or in text.







IsCatalogInMostPopularTable: catalog: 43801, numindb: 19
Update: records affected: 1



GetName: 43801 OBJECT AV

Hit Count: updated at: Wed, 23 Jan 2019 03:20:12 GMT